Regional Weather Roundup
Issued by NWS Goodland, KS

Home | Current Version | Previous Version | Graphics & Text | Print | Product List | Glossary On
Versions: 1 2 3 4 5 6 7 8 9 10 11 12 13 14 15 16 17 18 19 20 21 22 23 24 25 26 27 28 29 30 31 32 33 34 35 36 37 38 39 40 41 42 43 44 45 46 47 48 49 50
000
ASUS43 KGLD 161308
RWRGLD

GOODLAND FORECAST AREA HOURLY WEATHER ROUNDUP
NATIONAL WEATHER SERVICE GOODLAND KS
700 AM MDT WED APR 16 2014

...OFFICIAL OBSERVATIONS...

CITY           SKY/WX    TMP DP  RH WIND       PRES   REMARKS
GOODLAND KS    PTCLDY    44  32  62 NW25      29.75R
HILL CITY KS   MOSUNNY   44  18  35 SW6       29.66R
IMPERIAL NEB   PTCLDY    44  34  67 NW31G45   29.70R
MCCOOK NEB     CLOUDY    47  32  56 W17       29.66R
AKRON CO       PTCLDY    37  31  78 N21G28    29.81R
BURLINGTON CO  PTCLDY    41  30  65 NW21      29.77R
LIMON CO       CLEAR     36  28  73 NW7       29.84R
$$

...UNOFFICIAL OBSERVATIONS...

CITY           SKY/WX    TMP DP  RH WIND       PRES   REMARKS
COLBY KS       CLEAR     46  36  66 W18G24    29.71R
GOVE KS          N/A     38  32  79 CALM        N/A
LENORA KS        N/A     43  32  65 W13         N/A
LEOTI KS         N/A     48  32  53 NW12        N/A
NORTON KS      SUNNY     37  23  56 W9        29.64R
OBERLIN KS     FAIR      43  32  65 W5        29.66R
SHARON SPRINGS   N/A     47  33  57 N20G29      N/A
ST FRANCIS KS  PTCLDY    45  32  61 NW17G23   29.75R
WAKEENEY KS      N/A     43  13  29 MISG        N/A
WRAY CO        FAIR      41  34  75 NW23G32   29.76R
$$



USA.gov is the U.S. government's official web portal to all federal, state and local government web resources and services.